{"data":{"norad_id":62697,"epoch":"2026-09-22T20:12:16.961472Z","epoch_age_seconds":117205,"freshness":"FRESH","line1":"1 62697U 25009CS  26265.84186298  .00001274  00000+0  12262-3 0  9992","line2":"2 62697  97.6975 342.3173 0003498  61.9203 298.2371 14.94683421 91928","mean_motion":14.94683421,"eccentricity":0.0003498,"inclination_deg":97.6975,"raan_deg":342.3173,"arg_perigee_deg":61.9203,"mean_anomaly_deg":298.2371,"bstar":0.00012262,"rev_number":9192,"period_min":96.341471362316,"perigee_km":580.92042594946,"apogee_km":585.79068614167,"semimajor_km":6961.4925560456,"source":"CELESTRAK","updated_at":"2026-09-23T09:00:21.581535Z"}}